IRIDIUM 33 DEB

Satellite information

Favourite Embed

Satellite Type and Status

DEBRISIN ORBIT

Key statistics

Satellite IRIDIUM 33 DEB at a glance.

Uptime

10157

Days in orbit

Revolutions

≈ 14.4

Per day

Orbit

LEO

Low Earth Orbit

Inclination

86.4

Latest

Satellite identification and parameters

Extended collection of information and parameters for IRIDIUM 33 DEB.

Object identification

Identified? True

Debris? True

Object name: IRIDIUM 33 DEB

International designator: 1997-051N

Object number (NORAD): 33775

Object ID (CCSDS): 33775

Country: UNITED STATES OF AMERICA (US)

Current information (Y/N): Y

RCS size: MEDIUM

Orbital parameters

Period: 99.935 minutes

Inclination: 86.3649 deg

SMA: 7133.519 km

Apoapsis: 764.679 km

Periapsis: 746.089 km

RAAN: 118.0158 deg

Eccentricy: 0.001303

Argument of periapsis: 345.3198 deg

Mean anomaly: 131.9791 deg

Mean motion: 14.40943719 rev/day

Mean motion (dot): 0.00001253 rev/day2

B* drag term: 0.00038412 1/REarth

Two-line elements (TLE)

Creation date: July 5, 2025, 5:45 p.m.

Reference frame: TEME

Reference center: EARTH

Epoch: July 5, 2025, 8 a.m. UTC

TLE line 0: 0 IRIDIUM 33 DEB

TLE line 1: 1 33775U 97051N 25186.33378405 .00001253 00000-0 38412-3 0 9994

TLE line 2: 2 33775 86.3649 118.0158 0013030 345.3198 131.9791 14.40943719858304

Live tracking on map

Real-time ground track for satellite IRIDIUM 33 DEB.

In-orbit conjunctions

A list of the most updated potential collisions computed for object IRIDIUM 33 DEB.

Target Orbit TCA Probability of collision Miss distance Type
COSMOS 2251 DEB LEO 2024-08-27 01:55:35 0.000105589 727.0 (m) DEBRIS
FENGYUN 1C DEB SSO 2024-08-25 14:13:52 0.000101868 206.0 (m) DEBRIS
COSMOS 1867 COOLANT LEO 2024-08-08 10:39:16 0.0003645365 143.0 (m) DEBRIS
IRIDIUM 71 LEO 2024-06-20 19:10:53 0.0006737331 818.0 (m) PAYLOAD

Associated space launch

Iridium provides global mobile telecommunications services using a constellation of 66 low earth orbit satellites in a 86.4° inclined orbit. Although 77 satellites were originally envisioned for the system and spawned the name based on the 77th element in the periodic table, the system has been scaled back. Motorola's Satellite Communications Group designed and manufactured the Iridium satellites with Lockheed Martin providing the LM-700A spacecraft buses.

IRIDIUM 33 DEB was lifted into orbit during the mission ‘Proton-K/17S40 | Iridium 27 to 33’, on board a Proton-K/17S40 space rocket.

The launch took place on Sept. 14, 1997, 1:36 a.m. from 81/23 (81L).

For more information about the launch, click the button.

Launch to space Proton-K/17S40 | Iridium 27 to 33
Proton-K/17S40 | Iridium 27 to 33

Agency: N/A

Status: Launch Successful

Launch date: Sept. 14, 1997, 1:36 a.m. UTC

Rocket: Proton-K/17S40

Launch pad: 81/23 (81L)

Location: Baikonur Cosmodrome, Republic of Kazakhstan

...

Latest news about this satellite

There are no fresh news available about this satellite. Check back as we update our databases every day.


Newsletter sign-up

Weekly statistics, charts and insights to help you stay on top of the space industry.